Regional Weather Roundup
Issued by NWS Charleston, SC

Current Version | Previous Version | Graphics & Text | Print | Product List | Glossary On
Versions: 1 2 3 4 5 6 7 8 9 10 11 12 13 14 15 16 17 18 19 20 21 22 23 24 25 26 27 28 29 30 31 32 33 34 35 36 37 38 39 40 41 42 43 44 45 46 47 48 49 50
929
ASUS42 KCHS 291412
RWRCHS

REGIONAL WEATHER ROUNDUP
NATIONAL WEATHER SERVICE CHARLESTON SC
1000 AM EDT MON MAY 29 2017

NOTE: "FAIR" INDICATES FEW OR NO CLOUDS BELOW 12,000 FEET WITH NO
SIGNIFICANT WEATHER AND/OR OBSTRUCTIONS TO VISIBILITY.

NOT ALL STATIONS ARE QUALITY CONTROLLED. USE DATA WITH CAUTION...
ESPECIALLY DEWPOINT OBSERVATIONS.

SCZ027-030-031-034>040-042>050-291500-
...SOUTHEAST SOUTH CAROLINA...

CITY           SKY/WX    TMP DP  RH WIND       PRES   REMARKS
N CHARLESTON   MOSUNNY   84  69  60 NW8       29.96S
WATERFRONT PRK   N/A     81  70  69 NW5       29.94S
JOHNS ISLAND   FAIR      86  72  62 NW8       29.97S HX  92
PINOPOLIS        N/A     79  70  73 VRB3      29.91R
MONCKS CORNER  FAIR      79  68  69 N5        29.97S
SUMMERVILLE    FAIR      81  68  65 W3        29.98S
BEAUFORT MCAS  SUNNY     83  70  64 W8        29.98S
BEAUFORT ARPT  NOT AVBL
HILTON HEAD IS SUNNY     81  70  69 W8        29.99S
WALTERBORO     SUNNY     79  68  69 NW6       29.98F
ALLENDALE      FAIR      81  68  65 VRB3      29.99R

...SOUTHERN MIDLANDS AND PEE DEE...

CITY           SKY/WX    TMP DP  RH WIND       PRES   REMARKS
GEORGETOWN     FAIR      81  66  61 NW7       29.97R
KINGSTREE      FAIR      79  66  65 CALM      29.96S
ORANGEBURG     SUNNY     80  68  66 NW7       29.98R
BARNWELL       FAIR      82  70  65 VRB6      29.99R
AIKEN          FAIR      79  66  65 W6        30.03R
MANNING        FAIR      81  68  65 N13G18    29.96F
COLUMBIA       MOSUNNY   83  68  60 W7        29.96S
SUMTER         SUNNY     79  67  65 W5        29.95R
FLORENCE       SUNNY     80  70  71 W3        29.96R
MYRTLE BEACH   SUNNY     79  72  78 NW5       29.96R
N MYRTLE BEACH SUNNY     81  70  69 VRB3      29.94S

$$

GAZ063-065-086>088-099>101-113>116-118-119-134>141-150-291500-
...SOUTHEAST GEORGIA...

CITY           SKY/WX    TMP DP  RH WIND       PRES   REMARKS
SAVANNAH ARPT  MOSUNNY   83  67  58 NW10      30.00R
HUNTER AAF     MOSUNNY   83  73  71 W7        29.97S
FORT STEWART   MOSUNNY   83  68  59 NW7       29.98S
STATESBORO     SUNNY     82  69  64 NW12      30.01R
SYLVANIA       SUNNY     82  71  68 NW7       30.01R
CLAXTON        FAIR      83  75  78 W7        30.01R HX  90

...CSRA...CENTRAL AND FAR SOUTHEAST GEORGIA...

CITY           SKY/WX    TMP DP  RH WIND       PRES   REMARKS
THOMSON        MOSUNNY   80  66  63 NW7       30.05S
AUGUSTA-BUSH   SUNNY     85  66  53 NW10      29.99R
AUGUSTA-DANIEL SUNNY     82  65  56 W7        30.01R
SWAINSBORO     FAIR      81  68  65 NW9       30.02S
VIDALIA        SUNNY     82  70  65 W6        30.03R
EASTMAN        FAIR      82  59  44 W5        30.05F
HAZLEHURST     FAIR      83  72  67 N6        30.03R
ALMA           SUNNY     83  68  60 W12       30.04R
WAYCROSS       MOSUNNY   85  76  73 NW9G16    30.05R HX  94
JESUP          FAIR      82  66  57 NW7       30.03R
BAXLEY         FAIR      82  73  74 NW8       30.03R
BRUNSWICK      MOSUNNY   82  73  74 NW9       30.03R
SAINT SIMONS   SUNNY     83  72  69 W7        30.02R

$$

SCZ027-028-034-036>038-045-046-048>050-GAZ119-141-291500-
...LAKE AND SUPPLEMENTAL COASTAL OBSERVATIONS...

STATION/POSITION TIME  TEMP    WIND        PRES    WAVE   SWELL
                       AIR SEA DIR/SP/G            HT/PER HT/PER/DIR
                 (UTC) (F)     (DEG/KT/KT) (MB)    (FT/S) (FT/S/D)
WINYAH BAY       NOT AVBL
LAKE MURRAY      1320   74     280/  6/  7 1014.2R
ACE BASIN NERRS  1245   79     290/  4     1015.0
FORT PULASKI     1348   79     300/ 10/ 12 1015.8S
SAPELO ISLAND    1300   80     300/  6     1016.0

$$

ANZ835-935-AMZ111-154-330-350-352-354-370-450-454-472-291500-
...C-MAN AND BUOY OBSERVATIONS...

STATION/POSITION TIME  TEMP    WIND        PRES    WAVE   SWELL
                       AIR SEA DIR/SP/G            HT/PER HT/PER/DIR
                 (UTC) (F)     (DEG/KT/KT) (MB)    (FT/S) (FT/S/D)
BUOY 41004       1350   77 76  270/  6/  8 1014.8R   3/ 5   3/210/ 5
BUOY 41008       1250   78 78  270/ 12/ 12 1015.7    2/ 4   2/100/ 8
FOLLY BEACH CMAN 1300   79     290/  6/  8 1015.2R
CAPERS NEARSHORE 1308   82 77  310/  4/  6 1014.6R
FRIPP NEARSHORE  1308   78 78  300/  8/ 10 1015.1R


STATION/POSITION TIME  TEMP    WIND        PRES    WAVE   SWELL
                       AIR SEA DIR/SP/G            HT/PER HT/PER/DIR
                 (UTC) (F)     (DEG/KT/KT) (MB)    (FT/S) (FT/S/D)
5E ST. MARYS GA  1330      79                N/A     1/ 2
FRYING PAN BUOY  1350   76 75  280/  6/  8 1013.5F   3/ 5   3/210/ 5
BUOY 41025       1350   75 77  270/ 10/ 12 1012.6R   4/ 6   3/210/ 6
CAPE LOOKOUT NC  1300   76     280/  7/  9 1012.9R
BUOY 41002       1250   77 76  230/ 14/ 16 1015.6    3/ 5   2/210/11
BUOY 41010       1350   81 80  190/  4/  4 1017.5F   2/ 4   2/210/ 4
ST AUGUSTINE FL  1400   83 76  280/  7/ 10 1018.2R


$$




USA.gov is the U.S. government's official web portal to all federal, state and local government web resources and services.